TimeCDT,TemperatureF,Dew PointF,Humidity,Sea Level PressureIn,VisibilityMPH,Wind Direction,Wind SpeedMPH,Gust SpeedMPH,PrecipitationIn,Events,Conditions,WindDirDegrees,DateUTC
12:12 AM,19.4,17.6,93,30.19,10.0,Calm,Calm,-,N/A,,Clear,0,2012-11-03 05:12:00
12:33 AM,19.4,17.6,93,30.20,10.0,Calm,Calm,-,N/A,,Clear,0,2012-11-03 05:33:00
12:53 AM,21.2,21.2,100,30.20,10.0,ESE,3.5,-,N/A,,Clear,110,2012-11-03 05:53:00
1:12 AM,23.0,21.2,93,30.20,10.0,ESE,3.5,-,N/A,,Clear,110,2012-11-03 06:12:00
1:33 AM,23.0,21.2,93,30.20,10.0,Calm,Calm,-,N/A,,Clear,0,2012-11-03 06:33:00
1:53 AM,23.0,21.2,93,30.20,10.0,Calm,Calm,-,N/A,,Clear,0,2012-11-03 06:53:00
2:12 AM,23.0,21.2,93,30.21,10.0,Calm,Calm,-,N/A,,Clear,0,2012-11-03 07:12:00
2:33 AM,21.2,21.2,100,30.21,10.0,Calm,Calm,-,N/A,,Clear,0,2012-11-03 07:33:00
2:53 AM,21.2,21.2,100,30.20,10.0,Calm,Calm,-,N/A,,Clear,0,2012-11-03 07:53:00
3:12 AM,21.2,21.2,100,30.20,10.0,Calm,Calm,-,N/A,,Clear,0,2012-11-03 08:12:00
3:33 AM,23.0,21.2,93,30.20,7.0,Calm,Calm,-,N/A,,Clear,0,2012-11-03 08:33:00
3:53 AM,23.0,21.2,93,30.20,7.0,Calm,Calm,-,N/A,,Clear,0,2012-11-03 08:53:00
4:12 AM,23.0,21.2,93,30.20,10.0,Calm,Calm,-,N/A,,Clear,0,2012-11-03 09:12:00
4:33 AM,23.0,21.2,93,30.20,10.0,Calm,Calm,-,N/A,,Clear,0,2012-11-03 09:33:00
4:53 AM,23.0,21.2,93,30.20,10.0,Calm,Calm,-,N/A,,Clear,0,2012-11-03 09:53:00
5:12 AM,23.0,21.2,93,30.20,10.0,Calm,Calm,-,N/A,,Clear,0,2012-11-03 10:12:00
5:33 AM,24.8,23.0,93,30.20,10.0,Calm,Calm,-,N/A,,Clear,0,2012-11-03 10:33:00
5:52 AM,24.8,23.0,93,30.21,10.0,Calm,Calm,-,N/A,,Clear,0,2012-11-03 10:52:00
6:13 AM,24.8,23.0,93,30.21,10.0,Calm,Calm,-,N/A,,Clear,0,2012-11-03 11:13:00
6:33 AM,24.8,23.0,93,30.21,10.0,Calm,Calm,-,N/A,,Clear,0,2012-11-03 11:33:00
6:52 AM,24.8,23.0,93,30.21,10.0,Calm,Calm,-,N/A,,Clear,0,2012-11-03 11:52:00
7:13 AM,24.8,23.0,93,30.21,10.0,Calm,Calm,-,N/A,,Mostly Cloudy,0,2012-11-03 12:13:00
7:33 AM,24.8,23.0,93,30.21,10.0,Calm,Calm,-,N/A,,Scattered Clouds,0,2012-11-03 12:33:00
7:53 AM,24.8,23.0,93,30.21,10.0,Calm,Calm,-,N/A,,Clear,0,2012-11-03 12:53:00
8:12 AM,26.6,23.0,86,30.22,10.0,Calm,Calm,-,N/A,,Clear,0,2012-11-03 13:12:00
8:33 AM,26.6,24.8,93,30.22,10.0,Calm,Calm,-,N/A,,Clear,0,2012-11-03 13:33:00
8:53 AM,26.6,24.8,93,30.22,10.0,Calm,Calm,-,N/A,,Clear,0,2012-11-03 13:53:00
9:12 AM,26.6,24.8,93,30.22,10.0,Calm,Calm,-,N/A,,Clear,0,2012-11-03 14:12:00
9:33 AM,26.6,24.8,93,30.22,10.0,Calm,Calm,-,N/A,,Clear,0,2012-11-03 14:33:00
9:53 AM,28.4,24.8,86,30.23,10.0,Calm,Calm,-,N/A,,Clear,0,2012-11-03 14:53:00
10:12 AM,28.4,26.6,93,30.23,10.0,Calm,Calm,-,N/A,,Clear,0,2012-11-03 15:12:00
10:33 AM,28.4,26.6,93,30.23,10.0,Calm,Calm,-,N/A,,Mostly Cloudy,0,2012-11-03 15:33:00
10:53 AM,28.4,26.6,93,30.23,10.0,Calm,Calm,-,N/A,,Overcast,0,2012-11-03 15:53:00
11:12 AM,30.2,26.6,86,30.24,10.0,Calm,Calm,-,N/A,,Overcast,0,2012-11-03 16:12:00
11:33 AM,30.2,26.6,86,30.24,10.0,Calm,Calm,-,N/A,,Overcast,0,2012-11-03 16:33:00
11:53 AM,30.2,26.6,86,30.24,10.0,Calm,Calm,-,N/A,,Overcast,0,2012-11-03 16:53:00
12:12 PM,32.0,26.6,80,30.23,10.0,Calm,Calm,-,N/A,,Mostly Cloudy,0,2012-11-03 17:12:00
12:33 PM,32.0,26.6,80,30.24,10.0,South,3.5,-,N/A,,Mostly Cloudy,170,2012-11-03 17:33:00
12:53 PM,33.8,26.6,75,30.23,10.0,South,4.6,-,N/A,,Overcast,180,2012-11-03 17:53:00
1:12 PM,33.8,26.6,75,30.23,10.0,Calm,Calm,-,N/A,,Mostly Cloudy,0,2012-11-03 18:12:00
1:33 PM,33.8,26.6,75,30.22,10.0,Calm,Calm,-,N/A,,Scattered Clouds,0,2012-11-03 18:33:00
1:52 PM,35.6,26.6,70,30.22,10.0,SE,5.8,-,N/A,,Scattered Clouds,130,2012-11-03 18:52:00
2:13 PM,35.6,26.6,70,30.22,10.0,SSW,4.6,-,N/A,,Mostly Cloudy,200,2012-11-03 19:13:00
2:33 PM,35.6,26.6,70,30.21,10.0,Calm,Calm,-,N/A,,Overcast,0,2012-11-03 19:33:00
2:52 PM,35.6,26.6,70,30.21,10.0,Calm,Calm,-,N/A,,Mostly Cloudy,0,2012-11-03 19:52:00
3:13 PM,35.6,26.6,70,30.21,10.0,South,3.5,-,N/A,,Scattered Clouds,170,2012-11-03 20:13:00
3:33 PM,35.6,26.6,70,30.21,10.0,Calm,Calm,-,N/A,,Clear,0,2012-11-03 20:33:00
3:52 PM,35.6,26.6,70,30.21,10.0,SE,3.5,-,N/A,,Scattered Clouds,130,2012-11-03 20:52:00
4:13 PM,35.6,26.6,70,30.21,10.0,Calm,Calm,-,N/A,,Clear,0,2012-11-03 21:13:00
4:32 PM,35.6,24.8,65,30.21,10.0,Calm,Calm,-,N/A,,Clear,0,2012-11-03 21:32:00
4:53 PM,35.6,26.6,70,30.21,10.0,Calm,Calm,-,N/A,,Clear,0,2012-11-03 21:53:00
5:13 PM,35.6,26.6,70,30.21,10.0,Calm,Calm,-,N/A,,Clear,0,2012-11-03 22:13:00
5:32 PM,33.8,26.6,75,30.21,10.0,Calm,Calm,-,N/A,,Clear,0,2012-11-03 22:32:00
5:53 PM,30.2,24.8,80,30.21,10.0,Calm,Calm,-,N/A,,Clear,0,2012-11-03 22:53:00
6:13 PM,30.2,24.8,80,30.21,10.0,Calm,Calm,-,N/A,,Scattered Clouds,0,2012-11-03 23:13:00
6:32 PM,28.4,24.8,86,30.21,10.0,Calm,Calm,-,N/A,,Scattered Clouds,0,2012-11-03 23:32:00
6:53 PM,26.6,24.8,93,30.22,10.0,Calm,Calm,-,N/A,,Clear,0,2012-11-03 23:53:00
7:13 PM,26.6,24.8,93,30.23,10.0,Calm,Calm,-,N/A,,Clear,0,2012-11-04 00:13:00
7:32 PM,26.6,24.8,93,30.23,10.0,Calm,Calm,-,N/A,,Clear,0,2012-11-04 00:32:00
7:53 PM,24.8,23.0,93,30.23,10.0,Calm,Calm,-,N/A,,Clear,0,2012-11-04 00:53:00
8:13 PM,26.6,24.8,93,30.23,10.0,Calm,Calm,-,N/A,,Clear,0,2012-11-04 01:13:00
8:32 PM,24.8,23.0,93,30.23,10.0,Calm,Calm,-,N/A,,Clear,0,2012-11-04 01:32:00
8:52 PM,23.0,21.2,93,30.24,10.0,Calm,Calm,-,N/A,,Clear,0,2012-11-04 01:52:00
9:13 PM,24.8,23.0,93,30.24,10.0,Calm,Calm,-,N/A,,Mostly Cloudy,0,2012-11-04 02:13:00
9:33 PM,24.8,21.2,86,30.24,10.0,Calm,Calm,-,N/A,,Mostly Cloudy,0,2012-11-04 02:33:00
9:53 PM,24.8,21.2,86,30.24,10.0,Calm,Calm,-,N/A,,Mostly Cloudy,0,2012-11-04 02:53:00
10:13 PM,24.8,21.2,86,30.24,10.0,Calm,Calm,-,N/A,,Scattered Clouds,0,2012-11-04 03:13:00
10:32 PM,21.2,21.2,100,30.23,10.0,Calm,Calm,-,N/A,,Clear,0,2012-11-04 03:32:00
10:53 PM,21.2,19.4,93,30.23,10.0,Calm,Calm,-,N/A,,Clear,0,2012-11-04 03:53:00
11:13 PM,21.2,19.4,93,30.23,10.0,Calm,Calm,-,N/A,,Clear,0,2012-11-04 04:13:00
11:32 PM,19.4,19.4,100,30.23,10.0,Calm,Calm,-,N/A,,Clear,0,2012-11-04 04:32:00
11:53 PM,19.4,19.4,100,30.23,10.0,Calm,Calm,-,N/A,,Clear,0,2012-11-04 04:53:00